This is the latest recevied weather packets stored in our database for station/object VA3BOO. If no packets are shown the sender has not sent any weather packets the latest 1 day(s).
| Time | Temp. | Humidity | Pressure | Rain* | Wind** | Luminosity | Snow |
|---|---|---|---|---|---|---|---|
| 1778058003 | 6.11° C | 97% | 1009.4 hPa | 2.03 mm | 0 m/s | 0 W/m² | - |
| 1778057704 | 6.11° C | 97% | 1009.4 hPa | 2.03 mm | 0 m/s | 0 W/m² | - |
| 1778057403 | 6.67° C | 97% | 1009.4 hPa | 1.78 mm | 0 m/s | 0 W/m² | - |
| 1778057103 | 6.67° C | 97% | 1009.6 hPa | 1.52 mm | 0 m/s | 0 W/m² | - |
| 1778056803 | 6.11° C | 97% | 1009.5 hPa | 1.27 mm | 0 m/s | 0 W/m² | - |
| 1778056503 | 6.67° C | 97% | 1009.9 hPa | 1.27 mm | 0 m/s | 0 W/m² | - |
| 1778056204 | 6.67° C | 97% | 1010.1 hPa | 1.02 mm | 0 m/s | 0 W/m² | - |
| 1778055904 | 6.67° C | 97% | 1009.9 hPa | 0.76 mm | 0 m/s | 0 W/m² | - |
| 1778055604 | 6.67° C | 97% | 1009.7 hPa | 0.76 mm | 0 m/s | 0 W/m² | - |
| 1778055303 | 6.67° C | 97% | 1009.9 hPa | 0.51 mm | 0.45 m/s, 292° | 0 W/m² | - |
| 1778055003 | 6.67° C | 97% | 1009.9 hPa | 0.25 mm | 0.45 m/s, 324° | 0 W/m² | - |
| 1778054703 | 6.67° C | 97% | 1010 hPa | 0.25 mm | 0.45 m/s, 349° | 0 W/m² | - |
| 1778054403 | 6.67° C | 97% | 1009.6 hPa | 0.25 mm | 0 m/s | 0 W/m² | - |
| 1778054103 | 6.67° C | 97% | 1009.5 hPa | 0.25 mm | 0 m/s | 0 W/m² | - |
| 1778053803 | 6.67° C | 97% | 1009.4 hPa | 0.25 mm | 0.45 m/s, 335° | 0 W/m² | - |
| 1778053503 | 6.67° C | 97% | 1009.3 hPa | 0.25 mm | 0 m/s | 0 W/m² | - |
| 1778053204 | 6.67° C | 97% | 1009.2 hPa | 0.25 mm | 0 m/s | 0 W/m² | - |
| 1778052903 | 6.67° C | 97% | 1009.1 hPa | 0 mm | 0 m/s | 0 W/m² | - |
| 1778052603 | 6.67° C | 97% | 1009.2 hPa | 0.25 mm | 0 m/s | 0 W/m² | - |
| 1778052303 | 6.67° C | 97% | 1009.4 hPa | 0.25 mm | 0 m/s | 0 W/m² | - |
| 1778052003 | 6.67° C | 97% | 1009.4 hPa | 0.25 mm | 0 m/s | 0 W/m² | - |
| 1778051715 | 6.67° C | 97% | 1009.4 hPa | 0.51 mm | 0 m/s | 0 W/m² | - |
| 1778051403 | 6.67° C | 97% | 1009.4 hPa | 0.76 mm | 0 m/s | 0 W/m² | - |
| 1778051104 | 6.67° C | 97% | 1009.4 hPa | 0.76 mm | 0 m/s | 0 W/m² | - |
| 1778050803 | 6.67° C | 97% | 1009.5 hPa | 1.02 mm | 0.45 m/s, 290° | 0 W/m² | - |
* Rain latest hour (hover to see other rain measurements)
** Current wind speed in m/s (hover to see current wind gust speed)